Weather History for Norman Wells, NT

Change the Weather History Date:

Thursday, June 20, 2013

  Actual Average Record
Temperature  
Mean Temperature 67 °F -  
Max Temperature 84 °F 71 °F 84 °F (2013)
Min Temperature 50 °F 51 °F 37 °F (2002)
Cooling Degree Days 2    
Growing Degree Days 17 (Base 50)    
Moisture  
Dew Point 49 °F    
Average Humidity 48    
Maximum Humidity 88    
Minimum Humidity 18    
Precipitation  
Precipitation 0.00 in 0.06 in - ()
Sea Level Pressure  
Sea Level Pressure 29.98 in    
Wind  
Wind Speed 6 mph ()    
Max Wind Speed 14 mph    
Max Gust Speed 18 mph    
Averages and records for this station are not official NWS values.
T = Trace of Precipitation, MM = Missing Value Source: Averaged Metar Reports

Daily Weather History Graph

Daily Weather History Graph

Search for Another Location

Airport:

Trip Planner

Search our weather history database for the weather conditions in past years. The results will help you decide how hot, cold, wet, or windy it might be!

Date:

Astronomy

Jun. 20, 2013 Rise Set
Actual Time 3:15 AM MDT 1:42 AM MDT
Civil Twilight Sun does not rise Sun does not rise
Nautical Twilight Sun does not rise Sun does not rise
Astronomical Twilight Sun does not rise Sun does not rise
Moon 9:17 PM MDT (6/20) 2:42 AM MDT (6/20)
Length of Visible Light 24h 00m
Length of Day
22h 27m
Waxing Gibbous, 89% of the Moon is Illuminated
Jun 20
Waxing Gibbous
Jun 23
Full
Jun 29
Last Quarter
Jul 8
New
Jul 15
First Quarter

Hourly Weather History & Observations

Time (MDT) Temp. Dew Point Humidity Pressure Visibility Wind Dir Wind Speed Gust Speed Precip Events Conditions
12:00 AM 69 °F 52 °F 43% 29.97 in 28 mi SE 5.8 mph - -   Scattered Clouds
12:00 AM 68.0 °F 51.8 °F 56% 29.97 in 30.0 mi SE 8.1 mph - N/A   Mostly Cloudy
1:00 AM 66.2 °F 50.0 °F 56% 29.98 in 30.0 mi East 5.8 mph - N/A   Scattered Clouds
2:00 AM 62.6 °F 48.2 °F 59% 29.99 in 30.0 mi ENE 5.8 mph - N/A   Scattered Clouds
3:00 AM 53.6 °F 46.4 °F 77% 30.00 in 30.0 mi ENE 4.6 mph - N/A   Scattered Clouds
4:00 AM 57.2 °F 46.4 °F 67% 30.01 in 30.0 mi East 5.8 mph - N/A   Scattered Clouds
5:00 AM 55.4 °F 46.4 °F 72% 30.02 in 30.0 mi ENE 3.5 mph - N/A   Scattered Clouds
6:00 AM 52 °F 47 °F 79% 30.03 in 28 mi East 3.5 mph - -   Scattered Clouds
6:00 AM 51.8 °F 48.2 °F 88% 30.02 in 30.0 mi East 4.6 mph - N/A   Partly Cloudy
7:00 AM 60.8 °F 50.0 °F 68% 30.02 in 30.0 mi NE 2.3 mph - N/A   Partly Cloudy
8:00 AM 62.6 °F 50.0 °F 63% 30.01 in 30.0 mi East 3.5 mph - N/A   Partly Cloudy
9:00 AM 64.4 °F 50.0 °F 59% 30.01 in 30.0 mi SSE 5.8 mph - N/A   Partly Cloudy
10:00 AM 68.0 °F 50.0 °F 52% 30.01 in 30.0 mi South 3.5 mph - N/A   Clear
11:00 AM 71.6 °F 50.0 °F 46% 30.00 in 30.0 mi SE 8.1 mph - N/A   Partly Cloudy
12:00 PM 75 °F 51 °F 32% 30.01 in 28 mi ESE 10.4 mph - -   Scattered Clouds
12:00 PM 75.2 °F 50.0 °F 41% 30.01 in 30.0 mi ESE 9.2 mph - N/A   Partly Cloudy
1:00 PM 77.0 °F 53.6 °F 44% 30.01 in 30.0 mi SE 9.2 mph - N/A   Partly Cloudy
2:00 PM 78.8 °F 51.8 °F 39% 29.99 in 30.0 mi ESE 8.1 mph - N/A   Partly Cloudy
3:00 PM 80.6 °F 48.2 °F 32% 29.98 in 30.0 mi SE 10.4 mph - N/A   Partly Cloudy
4:00 PM 80.6 °F 48.2 °F 32% 29.97 in 30.0 mi SE 9.2 mph - N/A   Partly Cloudy
5:00 PM 82.4 °F 46.4 °F 28% 29.96 in 30.0 mi SSE 6.9 mph - N/A   Partly Cloudy
6:00 PM 83 °F 47 °F 18% 29.95 in 28 mi SE 6.9 mph - -   Scattered Clouds
6:00 PM 82.4 °F 46.4 °F 28% 29.95 in 30.0 mi SE 6.9 mph - N/A   Partly Cloudy
7:00 PM 84.2 °F 44.6 °F 25% 29.93 in 30.0 mi SE 4.6 mph - N/A   Partly Cloudy
8:00 PM 82.4 °F 50.0 °F 32% 29.92 in 30.0 mi ESE 11.5 mph - N/A   Partly Cloudy
9:00 PM 80.6 °F 50.0 °F 34% 29.92 in 30.0 mi ESE 11.5 mph 18.4 mph N/A   Partly Cloudy
10:00 PM 78.8 °F 50.0 °F 36% 29.91 in 30.0 mi ESE 12.7 mph - N/A   Partly Cloudy
11:00 PM 75.2 °F 48.2 °F 38% 29.92 in 30.0 mi ESE 13.8 mph - N/A   Partly Cloudy